EW6160 Weather Reports


time (UTC)temp
C
wind
direction
speed
KPH
gust
KPH
rain 1hr
cm
rain 24hr
cm
rain mn
cm
humidity
%
barometer
mb
20260504090123 8 68 0.0 0.0 0.00 0.00 0.00 99 1006.7
20260504081122 8 121 0.0 4.8 0.00 0.00 0.00 99 1006.9
20260504080122 8 113 0.0 0.0 0.00 0.00 0.00 99 1006.9
20260504070123 10 90 0.0 0.0 0.00 0.00 0.00 96 1007.3
20260504060122 11 113 0.0 0.0 0.00 0.00 0.00 89 1007.7
20260504050123 13 158 0.0 0.0 0.00 0.00 0.00 79 1008.3
20260504045144 13 270 0.0 0.0 0.00 0.00 0.00 77 1008.4
20260504044123 14 202 0.0 4.8 0.00 0.00 0.00 76 1008.4
20260504043122 14 219 1.6 4.8 0.00 0.00 0.00 75 1008.5
20260504042122 15 225 0.0 0.0 0.00 0.00 0.00 76 1008.5
20260504041121 15 213 1.6 3.2 0.00 0.00 0.00 73 1008.7
20260504040122 15 211 1.6 4.8 0.00 0.00 0.00 72 1008.7
20260504035122 15 180 0.0 0.0 0.00 0.00 0.00 72 1008.7
20260504034121 15 205 1.6 4.8 0.00 0.00 0.00 70 1008.7
20260504033122 16 206 3.2 6.4 0.00 0.00 0.00 70 1008.8
20260504032123 16 208 4.8 4.8 0.00 0.00 0.00 69 1008.7
20260504031122 16 207 3.2 4.8 0.00 0.00 0.00 70 1008.8
20260504030143 16 206 3.2 6.4 0.00 0.00 0.00 70 1008.8
20260504025122 16 211 4.8 6.4 0.00 0.00 0.00 70 1008.8
20260504024123 16 204 3.2 4.8 0.00 0.00 0.00 71 1008.8
20260504023142 16 207 3.2 4.8 0.00 0.00 0.00 71 1008.7
20260504022143 15 212 1.6 4.8 0.00 0.00 0.00 72 1008.7
20260504021144 15 203 0.0 0.0 0.00 0.00 0.00 71 1008.7
20260504020122 15 203 0.0 0.0 0.00 0.00 0.00 73 1008.7
20260504015143 15 153 0.0 3.2 0.00 0.00 0.00 75 1008.7
20260504014122 15 180 0.0 0.0 0.00 0.00 0.00 72 1008.7
20260504013122 15 135 0.0 0.0 0.00 0.00 0.00 71 1008.5
20260504012122 16 113 0.0 0.0 0.00 0.00 0.00 70 1008.3
20260504011122 16 199 1.6 4.8 0.00 0.00 0.00 68 1008.4
20260504010122 17 213 0.0 3.2 0.00 0.00 0.00 68 1008.4
20260504005122 17 205 1.6 4.8 0.00 0.00 0.00 64 1008.3
20260504004122 18 207 3.2 4.8 0.00 0.00 0.00 60 1008.3
20260504003122 18 211 4.8 6.4 0.00 0.00 0.00 59 1008.3
20260504002123 19 214 1.6 4.8 0.00 0.00 0.00 59 1008.4
20260504001122 20 207 1.6 4.8 0.00 0.00 0.00 58 1008.3
20260504000123 20 212 3.2 6.4 0.00 0.00 0.00 58 1008.3
20260503235122 20 213 4.8 6.4 0.00 0.00 0.00 58 1008.4
20260503234123 20 215 4.8 8.0 0.00 0.00 0.00 57 1008.4
20260503233123 19 208 4.8 6.4 0.00 0.00 0.00 59 1008.4
20260503232123 19 204 3.2 6.4 0.00 0.00 0.00 58 1008.5
20260503231143 20 214 4.8 8.0 0.00 0.00 0.00 56 1008.5
20260503230122 20 211 6.4 8.0 0.00 0.00 0.00 54 1008.5
20260503225122 20 210 4.8 8.0 0.00 0.00 0.00 53 1008.7
20260503224121 20 211 6.4 8.0 0.00 0.00 0.00 53 1008.7
20260503223143 19 212 6.4 8.0 0.00 0.00 0.00 54 1008.8
20260503222143 20 208 4.8 8.0 0.00 0.00 0.00 56 1008.9
20260503221122 20 216 8.0 11.3 0.00 0.00 0.00 53 1009.2
20260503220122 20 218 6.4 11.3 0.00 0.00 0.00 54 1009.2
20260503215143 19 226 8.0 9.7 0.00 0.00 0.00 53 1009.2
20260503214122 20 213 8.0 12.9 0.00 0.00 0.00 52 1009.2
20260503213122 20 220 8.0 11.3 0.00 0.00 0.00 53 1009.2
20260503212122 20 225 8.0 14.5 0.00 0.00 0.00 51 1009.2
20260503211122 20 212 9.7 14.5 0.00 0.00 0.00 51 1009.2
20260503210122 19 218 8.0 12.9 0.00 0.00 0.00 52 1009.2
20260503205122 19 200 11.3 16.1 0.00 0.00 0.00 50 1009.3
20260503204122 20 209 11.3 16.1 0.00 0.00 0.00 48 1009.4
20260503203122 19 207 11.3 16.1 0.00 0.00 0.00 49 1009.3
20260503202143 18 212 9.7 14.5 0.00 0.00 0.00 50 1009.9
20260503201122 18 217 9.7 14.5 0.00 0.00 0.00 50 1009.7
20260503200122 18 205 11.3 17.7 0.00 0.00 0.00 49 1009.7
20260503195122 19 199 12.9 16.1 0.00 0.00 0.00 48 1009.8
20260503194122 20 210 11.3 16.1 0.00 0.00 0.00 48 1010.2
20260503193122 20 217 11.3 17.7 0.00 0.00 0.00 46 1010.2
20260503192122 20 213 11.3 14.5 0.00 0.00 0.00 46 1010.4
20260503191122 19 203 12.9 17.7 0.00 0.00 0.00 47 1010.2
20260503190122 19 209 11.3 19.3 0.00 0.00 0.00 46 1010.2
20260503185122 18 207 12.9 19.3 0.00 0.00 0.00 47 1010.4
20260503184122 18 205 12.9 19.3 0.00 0.00 0.00 46 1010.7
20260503183122 18 199 12.9 17.7 0.00 0.00 0.00 46 1010.7
20260503182122 17 210 11.3 16.1 0.00 0.00 0.00 49 1011.0
20260503181143 17 198 11.3 16.1 0.00 0.00 0.00 50 1011.2
20260503180122 18 199 8.0 17.7 0.00 0.00 0.00 50 1011.2
20260503175122 17 207 12.9 17.7 0.00 0.00 0.00 51 1011.5
20260503174122 17 201 11.3 19.3 0.00 0.00 0.00 52 1011.9
20260503173143 16 199 11.3 17.7 0.00 0.00 0.00 54 1012.4
20260503172143 16 208 9.7 16.1 0.00 0.00 0.00 54 1012.7
20260503171122 16 195 8.0 11.3 0.00 0.00 0.00 55 1013.2
20260503170122 16 197 8.0 14.5 0.00 0.00 0.00 54 1013.2
20260503160122 14 204 4.8 9.7 0.00 0.00 0.00 61 1014.0
20260503150143 15 206 6.4 11.3 0.00 0.00 0.00 59 1015.3
20260503140122 11 187 1.6 4.8 0.00 0.00 0.00 72 1016.0
20260503131122 10 205 4.8 6.4 0.00 0.00 0.00 74 1016.7
20260503130143 9 194 3.2 4.8 0.00 0.00 0.00 74 1016.7
20260503120122 8 198 4.8 6.4 0.00 0.00 0.00 78 1016.8
20260503110142 6 188 1.6 4.8 0.00 0.00 0.00 83 1016.7
20260503100142 7 193 1.6 4.8 0.00 0.00 0.00 78 1016.7